Valdosta Regional Airport Valdosta US
ICAO: KVLD
IATA: VLD
Category: Medium
Scheduled Services: Yes

Elevation: 203 ft
TransAlt. 18000 ft.

Airport Communications:
APP/DEP:119.525
ASOS:126.225
CTAF:120.9
GND:121.7
MACON RDO:122.2
TWR:120.9
UNICOM:122.95

KVLD Zoom In..

Runways:

(A) RW 04 length 5598 ft width 100 ft
---- / hdg 41

(B) RW 13 length 3636 ft width 75 ft
---- / hdg 131

(C) RW 17 length 8002 ft width 150 ft
---- / hdg 176

(D) RW 22 length 5598 ft width 100 ft
---- / hdg 221

(E) RW 31 length 3636 ft width 75 ft
---- / hdg 311

(F) RW 35 length 8002 ft width 150 ft
ILS 110.90 / hdg 356

Location; KVLD
Day. 04 / Time. 00.53 Zulu
* Altimeter: 30.25
* Temperature: 12° c. 53.6°f.
* Wind from: 010° Speed 03 kn.
Dewpoint: 09° c.
Visibility: 10 Statute Miles.
Clouds: Clear (automated report).

KVLD 040053Z 01003KT 10SM CLR 12/09 A3025 RMK AO2 SLP253 T01170089

Going to: --> -->


Wind From 010°
Speed 03 kn.

 
 
jpsmedia worldairports.se 2020   terms of use